NOAA 16 DEB, 41661

Orbit data source: Space-Track

NOAA 16 DEB, 41661 is space debris in SSO originally from a launch on Thu, 21 Sep 2000 UTC launched from the Air Force Western Test Range (AFWTR). Debris objects in space refer to the collection of defunct objects orbiting the Earth. Examples of debris include non-operational satellites, rocket bodies, and fragments generated from explosions, collisions, or faulty payload assembly.

Loading next visibility...
Identifier
41661, 2000-055PA
Orbit
SSO
Country
Flag of USUS
Related business
Manufacturer
Unknown
Mission
Spacecraft
Bus & Motor
Unknown
Mass
Unknown
Launch date (UTC)
2000-09-21 (25 years ago)
Launch vehicle
Unknown
Launch site
Air Force Western Test Range (AFWTR)
Object type
Payload
Rocket body
Debris
Shape & HBR
Unknown shape, 0.1 m
Radar Cross Section
Small (<0.1 m²)

Expand to show TLE details & history
Last TLE update: 9 hours ago

TLE from 9 hours ago
0 NOAA 16 DEB
1 41661U 00055PA  25291.30540081  .00009853  00000-0  30440-2 0  9996
2 41661  99.0409 112.4350 0020539 238.0666 121.8524 14.41395883492832
Epoch: 2025-10-18T07:19Z
TLE epoch observation values (Epoch: 2025-10-18T07:19:46.629Z)
Latitude
0.00001°
Longitude
-24.54762°
Altitude
764.577 km
Speed
7.468 km/s
True Right ascension
07h 29m 44s
True Declination
0° 00' 00"
Sunlit
Object was in daylight at epoch
Visualization orbit readout
Latitude
Unknown
Longitude
Unknown
Altitude
Unknown
Speed
Unknown
Apparent Right ascension
Unknown
Apparent Declination
Unknown
Sunlit
N/A
Visualization observer readout
Local Sidereal Time
11:02:31
Azimuth
Unknown
Elevation
Unknown
Doppler factor
Unknown
Orbital elements
Apogee altitude
765.679 km
Perigee altitude
736.394 km
Semi-major axis
7,129.174 km
Eccentricity
0.00205
Inclination
99.0409°
RAAN
112.435°
Arg. of periapsis
238.0666°
True anomaly
122.05205°
Mean anomaly
121.8524°
Eccentric anomaly
121.95225°
Mean motion
3.60566 °/min
Orbital period
99.84 mins
BSTAR
0.003044
Loading maneuver chart data...
Computing Atmospheric mass density...

Documentation

Showing up to 5 results
|